Weather History for KIRS - January, 2014

Change the Weather History Date:

Tuesday, January 21, 2014

  Actual Average (KHAI) Record (KHAI)
Temperature  
Mean Temperature 8 °F -  
Max Temperature 12 °F 31 °F 49 °F (1964)
Min Temperature 3 °F 14 °F -21 °F (1984)
Degree Days  
Heating Degree Days 58    
Moisture  
Dew Point -4 °F    
Average Humidity 61    
Maximum Humidity 85    
Minimum Humidity 44    
Precipitation  
Precipitation 0.00 in - - ()
Sea Level Pressure  
Sea Level Pressure 30.12 in    
Wind  
Wind Speed 11 mph (NNE)    
Max Wind Speed 20 mph    
Max Gust Speed 29 mph    
Visibility 9 miles    
Events Snow    
Averages and records for this station are not official NWS values.
T = Trace of Precipitation, MM = Missing Value Source: NWS Daily Summary

Daily Weather History Graph

Daily Weather History Graph

Search for Another Location

Airport or City:

Trip Planner

Search our weather history database for the weather conditions in past years. The results will help you decide how hot, cold, wet, or windy it might be!

Date:

Astronomy

Jan. 21, 2014 Rise Set
Actual Time 8:03 AM EST 5:43 PM EST
Civil Twilight 7:33 AM EST 6:13 PM EST
Nautical Twilight 6:59 AM EST 6:47 PM EST
Astronomical Twilight 6:25 AM EST 7:20 PM EST
Moon 11:21 PM EST (1/21) 10:27 AM EST (1/21)
Length of Visible Light 10h 40m
Length of Day
9h 39m
Waning Gibbous, 75% of the Moon is Illuminated
Jan 21
Waning Gibbous
Jan 24
Last Quarter
Jan 30
New
Feb 6
First Quarter
Feb 14
Full

Hourly Weather History & Observations

Time (EST) Temp. Windchill Dew Point Humidity Pressure Visibility Wind Dir Wind Speed Gust Speed Precip Events Conditions
12:15 AM 12.2 °F -4.3 °F 8.6 °F 85% 29.99 in 4.0 mi NNE 16.1 mph 20.7 mph N/A Snow Light Snow
12:34 AM 12.2 °F -1.0 °F 8.6 °F 85% 29.99 in 7.0 mi NE 10.4 mph 19.6 mph N/A Snow Light Snow
12:55 AM 10.4 °F -5.4 °F 6.8 °F 85% 29.99 in 5.0 mi NE 13.8 mph 20.7 mph N/A Snow Light Snow
1:15 AM 10.4 °F -8.2 °F 5.0 °F 79% 29.99 in 7.0 mi NE 19.6 mph 28.8 mph N/A Snow Light Snow
1:34 AM 10.4 °F -7.2 °F 6.8 °F 85% 29.99 in 7.0 mi NNE 17.3 mph 23.0 mph N/A Snow Light Snow
1:55 AM 10.4 °F -6.6 °F 5.0 °F 79% 29.99 in 4.0 mi NE 16.1 mph 25.3 mph N/A Snow Light Snow
2:15 AM 10.4 °F -6.0 °F 6.8 °F 85% 30.00 in 5.0 mi NE 15.0 mph - N/A Snow Light Snow
2:34 AM 10.4 °F -4.1 °F 6.8 °F 85% 30.01 in 4.0 mi NE 11.5 mph 19.6 mph N/A Snow Light Snow
2:55 AM 8.6 °F -9.5 °F 3.2 °F 79% 30.02 in 5.0 mi NE 17.3 mph 23.0 mph N/A Snow Light Snow
3:15 AM 8.6 °F -8.9 °F 3.2 °F 79% 30.03 in 4.0 mi NE 16.1 mph 24.2 mph N/A Snow Light Snow
3:34 AM 8.6 °F -6.3 °F 3.2 °F 79% 30.05 in 5.0 mi NE 11.5 mph - N/A Snow Light Snow
3:55 AM 6.8 °F -11.3 °F 1.4 °F 79% 30.05 in 7.0 mi NE 16.1 mph 21.9 mph N/A   Overcast
4:15 AM 6.8 °F -11.8 °F 1.4 °F 79% 30.06 in 5.0 mi NNE 17.3 mph 23.0 mph N/A   Haze
4:34 AM 6.8 °F -12.4 °F 1.4 °F 79% 30.06 in 5.0 mi NE 18.4 mph 23.0 mph N/A Snow Light Snow
4:55 AM 6.8 °F -9.3 °F 1.4 °F 79% 30.07 in 5.0 mi NNE 12.7 mph - N/A Snow Light Snow
5:14 AM 6.8 °F -5.9 °F 1.4 °F 79% 30.08 in 10.0 mi NNE 8.1 mph - N/A   Mostly Cloudy
5:35 AM 6.8 °F -5.9 °F -0.4 °F 72% 30.08 in 10.0 mi NNE 8.1 mph - N/A   Mostly Cloudy
5:55 AM 6.8 °F -11.3 °F -4.0 °F 61% 30.09 in 10.0 mi NNE 16.1 mph - N/A   Scattered Clouds
6:14 AM 6.8 °F -11.3 °F -5.8 °F 56% 30.09 in 10.0 mi NNE 16.1 mph - N/A   Clear
6:35 AM 5.0 °F -10.8 °F -5.8 °F 61% 30.10 in 10.0 mi North 11.5 mph 20.7 mph N/A   Clear
6:55 AM 5.0 °F -9.1 °F -7.6 °F 56% 30.11 in 10.0 mi North 9.2 mph - N/A   Clear
7:14 AM 3.2 °F -9.1 °F -7.6 °F 61% 30.12 in 10.0 mi North 6.9 mph - N/A   Clear
7:35 AM 3.2 °F -11.3 °F -7.6 °F 61% 30.13 in 10.0 mi NNE 9.2 mph - N/A   Clear
7:55 AM 3.2 °F -10.3 °F -7.6 °F 61% 30.13 in 10.0 mi North 8.1 mph - N/A   Clear
8:14 AM 3.2 °F -9.1 °F -7.6 °F 61% 30.13 in 10.0 mi North 6.9 mph - N/A   Clear
8:35 AM 3.2 °F -9.1 °F -7.6 °F 61% 30.14 in 10.0 mi North 6.9 mph - N/A   Clear
8:55 AM 3.2 °F -9.1 °F -7.6 °F 61% 30.14 in 10.0 mi North 6.9 mph - N/A   Clear
9:14 AM 3.2 °F -11.3 °F -7.6 °F 61% 30.15 in 10.0 mi North 9.2 mph - N/A   Clear
9:35 AM 3.2 °F -12.2 °F -7.6 °F 61% 30.15 in 10.0 mi NNE 10.4 mph - N/A   Clear
9:55 AM 3.2 °F -13.9 °F -7.6 °F 61% 30.16 in 10.0 mi North 12.7 mph 18.4 mph N/A   Clear
10:14 AM 5.0 °F -12.3 °F -7.6 °F 56% 30.17 in 10.0 mi North 13.8 mph 19.6 mph N/A   Clear
10:35 AM 5.0 °F -10.8 °F -7.6 °F 56% 30.17 in 10.0 mi NNE 11.5 mph 20.7 mph N/A   Clear
10:55 AM 6.8 °F -10.0 °F -7.6 °F 52% 30.18 in 10.0 mi North 13.8 mph 19.6 mph N/A   Clear
11:14 AM 6.8 °F -6.9 °F -5.8 °F 56% 30.18 in 10.0 mi North 9.2 mph - N/A   Clear
11:35 AM 6.8 °F -8.6 °F -5.8 °F 56% 30.18 in 10.0 mi North 11.5 mph 19.6 mph N/A   Clear
11:55 AM 6.8 °F -10.7 °F -5.8 °F 56% 30.17 in 10.0 mi North 15.0 mph - N/A   Clear
12:14 PM 8.6 °F -6.3 °F -5.8 °F 52% 30.17 in 10.0 mi North 11.5 mph - N/A   Clear
12:35 PM 8.6 °F -7.0 °F -5.8 °F 52% 30.16 in 10.0 mi NNE 12.7 mph 20.7 mph N/A   Clear
12:55 PM 8.6 °F -7.0 °F -5.8 °F 52% 30.15 in 10.0 mi NNE 12.7 mph - N/A   Clear
1:14 PM 8.6 °F -6.3 °F -7.6 °F 48% 30.16 in 10.0 mi North 11.5 mph 20.7 mph N/A   Clear
1:35 PM 8.6 °F -8.9 °F -5.8 °F 52% 30.15 in 10.0 mi North 16.1 mph 20.7 mph N/A   Clear
1:55 PM 8.6 °F -7.7 °F -7.6 °F 48% 30.14 in 10.0 mi North 13.8 mph 24.2 mph N/A   Clear
2:14 PM 8.6 °F -7.7 °F -7.6 °F 48% 30.14 in 10.0 mi North 13.8 mph 18.4 mph N/A   Clear
2:35 PM 8.6 °F -7.7 °F -7.6 °F 48% 30.14 in 10.0 mi North 13.8 mph 19.6 mph N/A   Clear
2:55 PM 10.4 °F -4.1 °F -7.6 °F 44% 30.15 in 10.0 mi North 11.5 mph - N/A   Clear
3:14 PM 8.6 °F -7.0 °F -7.6 °F 48% 30.14 in 10.0 mi North 12.7 mph 16.1 mph N/A   Clear
3:35 PM 10.4 °F -4.1 °F -7.6 °F 44% 30.14 in 10.0 mi North 11.5 mph 16.1 mph N/A   Clear
3:54 PM 8.6 °F -4.7 °F -5.8 °F 52% 30.14 in 10.0 mi North 9.2 mph - N/A   Clear
4:15 PM 8.6 °F -3.7 °F -7.6 °F 48% 30.15 in 10.0 mi NNE 8.1 mph - N/A   Clear
4:35 PM 8.6 °F -3.7 °F -7.6 °F 48% 30.16 in 10.0 mi NNE 8.1 mph - N/A   Clear
4:55 PM 8.6 °F 0.1 °F -7.6 °F 48% 30.16 in 10.0 mi North 4.6 mph - N/A   Clear
5:14 PM 8.6 °F 0.1 °F -7.6 °F 48% 30.17 in 10.0 mi NNE 4.6 mph - N/A   Clear
5:35 PM 8.6 °F 0.1 °F -7.6 °F 48% 30.17 in 10.0 mi NNE 4.6 mph - N/A   Clear
5:55 PM 6.8 °F - -7.6 °F 52% 30.17 in 10.0 mi Calm Calm - N/A   Clear
6:14 PM 6.8 °F - -7.6 °F 52% 30.17 in 10.0 mi Calm Calm - N/A   Clear
6:35 PM 5.0 °F - -7.6 °F 56% 30.17 in 10.0 mi Calm Calm - N/A   Mostly Cloudy
6:55 PM 3.2 °F - -5.8 °F 66% 30.17 in 10.0 mi Calm Calm - N/A   Overcast
7:14 PM 6.8 °F - -4.0 °F 61% 30.17 in 10.0 mi Calm Calm - N/A   Overcast
7:35 PM 6.8 °F - -4.0 °F 61% 30.17 in 10.0 mi Calm Calm - N/A   Overcast
7:55 PM 6.8 °F - -5.8 °F 56% 30.17 in 10.0 mi Calm Calm - N/A   Overcast
8:14 PM 6.8 °F - -5.8 °F 56% 30.17 in 10.0 mi Calm Calm - N/A   Overcast
8:35 PM 5.0 °F - -7.6 °F 56% 30.17 in 10.0 mi Calm Calm - N/A   Mostly Cloudy
8:55 PM 5.0 °F - -7.6 °F 56% 30.16 in 10.0 mi Calm Calm - N/A   Overcast
9:14 PM 6.8 °F - -5.8 °F 56% 30.16 in 10.0 mi Calm Calm - N/A   Overcast
9:35 PM 6.8 °F - -7.6 °F 52% 30.15 in 10.0 mi Calm Calm - N/A   Overcast
9:54 PM 5.0 °F -2.1 °F -7.6 °F 56% 30.15 in 10.0 mi SSE 3.5 mph - N/A   Overcast
10:15 PM 5.0 °F - -5.8 °F 61% 30.15 in 10.0 mi Calm Calm - N/A   Overcast
10:35 PM 5.0 °F - -5.8 °F 61% 30.15 in 10.0 mi Calm Calm - N/A   Overcast
10:54 PM 5.0 °F -4.1 °F -5.8 °F 61% 30.15 in 10.0 mi South 4.6 mph - N/A   Overcast
11:15 PM 5.0 °F -5.6 °F -5.8 °F 61% 30.15 in 10.0 mi SW 5.8 mph - N/A   Overcast
11:35 PM 5.0 °F -4.1 °F -5.8 °F 61% 30.15 in 10.0 mi SSW 4.6 mph - N/A   Overcast
11:54 PM 5.0 °F -4.1 °F -5.8 °F 61% 30.14 in 10.0 mi South 4.6 mph - N/A   Overcast